Location: Newark
(43.6583°N, 1.6617°E)
Time: 01:27:45
(UTC+00:00)

Courier 1B - Pass Details

Date: 25 August 2019
Orbit: 962 x 1209 km, 28.3° (Epoch: 23 October)

Event Time Altitude Azimuth Distance (km) Brightness Sun altitude
Rises 18:22:07 0° 243° (WSW) 3,785 11.5 2.6°
Reaches altitude 10° 18:25:34 10° 228° (SW) 2,790 10.5 2.0°
Maximum altitude 18:30:21 21° 183° (S) 2,066 9.2 1.1°
Drops below altitude 10° 18:35:01 10° 137° (SE) 2,705 9.3 0.3°
Sets 18:38:18 0° 121° (ESE) 3,637 9.9 -0.3°
